{"data":{"norad_id":59585,"intl_designator":"2024-076X","name":"STARLINK-31702","alt_names":[],"object_type":"PAYLOAD","status":"ACTIVE","operator":null,"country":"US","launch_date":"2024-04-23","launch_site_code":"AFETR","launch_vehicle":null,"mission":null,"orbit_class":"UNKNOWN","rcs_meters":null,"size_class":null,"mass_kg":null,"dimensions":null,"purposes":["comms"],"wikipedia_slug":null,"has_3d_model":false,"image_url":null,"decayed_at":null,"tle_current":{"epoch":"2026-09-21T11:43:16.293792Z","epoch_age_seconds":82872,"freshness":"FRESH","line1":"1 59585U 24076X   26264.48838303  .00000333  00000+0  21636-4 0  9998","line2":"2 59585  43.0053 343.5643 0001474 262.9825  97.0859 15.27578312136444","mean_motion":15.27578312,"eccentricity":0.0001474,"inclination_deg":43.0053,"raan_deg":343.5643,"arg_perigee_deg":262.9825,"mean_anomaly_deg":97.0859,"bstar":2.1636e-5,"rev_number":13644,"period_min":94.266852880011,"perigee_km":482.04281094798,"apogee_km":484.06549009915,"semimajor_km":6861.1911505236,"source":"CELESTRAK","updated_at":"2026-09-22T09:00:49.006231Z"}}}